Regional Weather Roundup
Issued by NWS

Home | Current Version | Previous Version | Graphics & Text | Print | Product List | Glossary On
Versions: 1 2 3 4 5 6 7 8 9 10 11 12 13 14 15 16 17 18 19 20 21 22 23 24 25 26 27 28 29 30 31 32 33 34 35 36 37 38 39 40 41 42 43 44 45 46 47 48 49 50
000
ASUS43 KIND 071909
RWRIN

WEATHER ROUNDUP FOR INDIANA
NATIONAL WEATHER SERVICE INDIANAPOLIS IN
200 PM EST SUN FEB 07 2016

NOTE: "FAIR" INDICATES FEW OR NO CLOUDS BELOW 12,000 FEET WITH NO
SIGNIFICANT WEATHER AND/OR OBSTRUCTIONS TO VISIBILITY.

* - STATION DOES NOT REPORT WEATHER SUCH AS PRECIPITATION OR FOG.

+ - STATION NOT QUALITY CONTROLLED BY THE NATIONAL WEATHER SERVICE.
    USE DATA WITH CAUTION...ESPECIALLY DEWPOINT AND RELATIVE
    HUMIDITY OBSERVATIONS.

INZ001>003-010>013-019-020-072000-
NORTHWEST INDIANA

CITY           SKY/WX    TMP DP  RH WIND       PRES   REMARKS
GARY /AIRPORT/ PTSUNNY   46  28  49 SW23G35   29.75F
LA PORTE +     MOSUNNY   48  33  57 SW16      29.75F
MICHIGAN CITY+ CLOUDY    46  32  57 SW14G26   29.75F
MONTICELLO +   MOSUNNY   49  27  41 SW17G25   29.80F
RENSSELAER +   SUNNY     46  30  53 SW23G29   29.79F
VALPARAISO     SUNNY     46  31  55 SW22G31   29.76F

$$

LMZ046-743>745-072000-
SOUTHERN LAKE MICHIGAN

STATION/POSITION TIME  TEMP    WIND        PRES    WAVE
                       AIR SEA DIR/SP/G            HT
                 (UTC) (F)     (DEG/KT/KT) (MB)    (FT)
BURNS HARBOR     1800   43     230/ 19/ 28 1008.8F
MICHIGAN CITY    1800   43     190/ 22/ 24   N/A

$$

INZ004-005-014>016-021>024-072000-
NORTH CENTRAL INDIANA

CITY           SKY/WX    TMP DP  RH WIND       PRES   REMARKS
ELKHART        MOSUNNY   46  28  49 SW15      29.77F
GOSHEN         CLOUDY    45  30  55 SW18      29.77F
LOGANSPORT +   PTSUNNY   46  28  49 S14G22    29.81F
PERU/GRISSOM   PTSUNNY   49  31  50 SW16G25   29.79F
ROCHESTER +    MOSUNNY   48  25  40 SW13G22   29.80F
SOUTH BEND     MOSUNNY   45  29  53 SW20G26   29.76F
WARSAW +       CLOUDY    46  30  53 SW12G21   29.79F

$$

INZ006>009-017-018-025>027-072000-
NORTHEAST INDIANA

CITY           SKY/WX    TMP DP  RH WIND       PRES   REMARKS
ANGOLA *+      SUNNY     45  32  61 SW12      29.78F
AUBURN +       MOSUNNY   46  28  49 SW12G18   29.81F
FORT WAYNE     CLOUDY    47  31  53 SW18      29.82F
HUNTINGTON +   CLOUDY    48  23  37 SW12G28   29.82F

$$

INZ028-029-035-036-043>045-051>053-072000-
WEST CENTRAL INDIANA

CITY           SKY/WX    TMP DP  RH WIND       PRES   REMARKS
GREENCASTLE +  CLOUDY    52  19  28 SW15G21   29.86F
LAFAYETTE      MOSUNNY   50  28  42 SW17G26   29.81F
TERRE HAUTE    SUNNY     53  29  39 SW21G32   29.87F

$$

INZ030>032-037>040-046>048-054>057-064-065-072000-
CENTRAL INDIANA

CITY           SKY/WX    TMP DP  RH WIND       PRES   REMARKS
COLUMBUS       SUNNY     54  30  40 SW21      29.91
FISHERS *+     MOSUNNY   50  30  46 SW25G37   29.86
FRANKFORT +    CLOUDY    48  21  34 S16G23    29.84F
INDIANAPOLIS   PTSUNNY   54  24  31 SW21G30   29.86F
-EAGLE CREEK   CLOUDY    50  26  39 SW15G28   29.86F
KOKOMO *+        N/A     48  -2  12 SW16G28   29.82F
MARION +       MOSUNNY   48  18  30 SW25G31   29.83F
MT COMFORT *+  SUNNY     50  30  46 SW23G31   29.87F
SHELBYVILLE    SUNNY     53  31  42 SW24G31   29.89F
ZIONSVILLE +   CLOUDY    50  28  42 SW22G28   29.86F

$$

INZ033-034-041-042-049-050-058-059-072000-
EAST CENTRAL INDIANA

CITY           SKY/WX    TMP DP  RH WIND       PRES   REMARKS
MUNCIE         MOSUNNY   52  29  41 SW12G30   29.85F

$$

INZ060-061-067>069-081>083-085>088-072000-
SOUTHWEST INDIANA

CITY           SKY/WX    TMP DP  RH WIND       PRES   REMARKS
EVANSVILLE     SUNNY     56  29  35 SW16G26   29.97F
HUNTINGBURG *+ CLOUDY    54  32  43 SW17G25   29.97F
WASHINGTON +   SUNNY     53  31  42 SW18G29   29.92F

$$

INZ062-063-066-070>080-084-089>092-072000-
SOUTH CENTRAL AND SOUTHEAST INDIANA

CITY           SKY/WX    TMP DP  RH WIND       PRES   REMARKS
BEDFORD +      CLOUDY    54  30  40 SW16G29   29.93F
BLOOMINGTON    CLOUDY    52  31  44 SW23G30   29.90F
MADISON *+     SUNNY     52  19  28 SW16G24   29.98F
NORTH VERNON + CLOUDY    54  25  32 S18G26    29.95F
SEYMOUR +      CLOUDY    55  30  38 SW24      29.94F

$$




USA.gov is the U.S. government's official web portal to all federal, state and local government web resources and services.